Location: Days
(41.3591°N, 106.7339°W)
Time: 22:17:02
(UTC+00:00)

O/OREOS (USA 219) - Pass Details

Date: 07 July 2022
Orbit: 621 x 646 km, 72.0° (Epoch: 22 May)

Event Time Altitude Azimuth Distance (km) Brightness Sun altitude
Rises 07:48:07 0° 316° (NW) 2,964 ? -25.5°
Reaches altitude 10° 07:51:30 10° 290° (WNW) 2,048 ? -25.4°
Enters shadow 07:52:23 12° 280° (W) 1,911 ? -25.4°
